STARLINK-1284, 45390

Orbit data source: Space-Track

STARLINK-1284, 45390 is a payload satellite owned by SpaceX/Seattle (US) in LEO that was launched on Wed, 18 Mar 2020 UTC via an FALCON 9 launch vehicle from the Air Force Eastern Test Range (AFETR). Payload-class satellites include a variety of spacecraft equipped with specific instruments for various scientific and technological missions. These include communications satellites like Starlink; space stations such as the ISS; scientific satellites like the Hubble; Earth observation satellites from companies like Planet Labs, Umbra, and HawkEye 360; GPS; miniature CubeSats for education and research; and military/defense satellites.

Loading next visibility...
Identifier
45390, 2020-019AG
Orbit
LEO
Country
Flag of USUS
Related business
Manufacturer
SpaceX/Seattle
Mission
Partially operational Commercial Communications
Bus & Motor
STARLINK, Unknown motor
Mass
260 kg wet, ~248 kg dry
Launch date (UTC)
2020-03-18 (7 years ago)
Launch vehicle
FALCON 9
Launch site
Air Force Eastern Test Range (AFETR)
Object type
Payload
Rocket body
Debris
Shape & HBR
Box + 1 Pan, 10.1 m
Radar Cross Section
13.562 m², Large (>1 m²)

Expand to show TLE details & history
Last TLE update: 13 hours ago

TLE from 13 hours ago
0 STARLINK-1284
1 45390U 20019AG  26267.22044023  .00130890  00000-0  49350-3 0  9998
2 45390  53.0350 229.1239 0005556  53.4795 306.6740 15.86874604361411
Epoch: 2026-09-24T05:17Z
TLE epoch observation values (Epoch: 2026-09-24T05:17:26.035Z)
Latitude
-0.00001°
Longitude
146.70508°
Altitude
309.741 km
Speed
7.725 km/s
True Right ascension
15h 16m 29s
True Declination
0° 00' 00"
Sunlit
Object was in daylight at epoch
Visualization orbit readout
Latitude
Unknown
Longitude
Unknown
Altitude
Unknown
Speed
Unknown
Apparent Right ascension
Unknown
Apparent Declination
Unknown
Sunlit
N/A
Visualization observer readout
Local Sidereal Time
11:52:36
Azimuth
Unknown
Elevation
Unknown
Doppler factor
Unknown
Orbital elements
Apogee altitude
315.051 km
Perigee altitude
307.618 km
Semi-major axis
6,689.472 km
Eccentricity
0.00056
Inclination
53.035°
RAAN
229.1239°
Arg. of periapsis
53.4795°
True anomaly
306.62291°
Mean anomaly
306.674°
Eccentric anomaly
306.64846°
Mean motion
3.96694 °/min
Orbital period
90.75 mins
BSTAR
0.0004935
Loading maneuver chart data...
Computing Atmospheric mass density...
Loading historical data...
Loading historical data...
Loading historical data...
Loading historical data...
Loading historical data...
Loading historical data...
Loading historical data...

Documentation

Showing up to 5 results
|